| time (UTC) | temp F | wind direction | speed MPH | gust MPH | rain 1hr in | rain 24hr in | rain mn in | humidity % | barometer mb |
| 20260507082923 | 55 | 106 | 4.0 | 8.0 | 0.00 | 0.00 | 0.00 | 56 | 1013.7 |
| 20260507081922 | 56 | 106 | 4.0 | 8.0 | 0.00 | 0.00 | 0.00 | 55 | 1013.7 |
| 20260507080921 | 57 | 102 | 4.0 | 9.0 | 0.00 | 0.00 | 0.00 | 55 | 1013.7 |
| 20260507075920 | 56 | 96 | 4.0 | 9.0 | 0.00 | 0.00 | 0.00 | 55 | 1013.7 |
| 20260507074919 | 55 | 96 | 4.0 | 9.0 | 0.00 | 0.00 | 0.00 | 57 | 1013.7 |
| 20260507073918 | 55 | 93 | 4.0 | 9.0 | 0.00 | 0.00 | 0.00 | 57 | 1013.7 |
| 20260507072917 | 54 | 91 | 4.0 | 9.0 | 0.00 | 0.00 | 0.00 | 60 | 1013.5 |
| 20260507071915 | 53 | 91 | 4.0 | 9.0 | 0.00 | 0.00 | 0.00 | 63 | 1013.5 |
| 20260507070914 | 51 | 88 | 4.0 | 9.0 | 0.00 | 0.00 | 0.00 | 66 | 1013.4 |
| 20260507065914 | 51 | 83 | 4.0 | 8.0 | 0.00 | 0.00 | 0.00 | 69 | 1013.5 |
| 20260507064913 | 50 | 83 | 4.0 | 8.0 | 0.00 | 0.00 | 0.00 | 72 | 1013.5 |
| 20260507063912 | 49 | 78 | 3.0 | 7.0 | 0.00 | 0.00 | 0.00 | 73 | 1013.5 |
| 20260507062911 | 49 | 81 | 3.0 | 7.0 | 0.00 | 0.00 | 0.00 | 73 | 1013.5 |
| 20260507061911 | 48 | 81 | 3.0 | 7.0 | 0.00 | 0.00 | 0.00 | 75 | 1013.4 |
| 20260507060909 | 48 | 76 | 3.0 | 6.0 | 0.00 | 0.00 | 0.00 | 75 | 1013.3 |
| 20260507055909 | 48 | 64 | 2.0 | 5.0 | 0.00 | 0.00 | 0.00 | 76 | 1013.2 |
| 20260507054908 | 48 | 64 | 2.0 | 5.0 | 0.00 | 0.00 | 0.00 | 77 | 1013.2 |
| 20260507053907 | 47 | 52 | 2.0 | 4.0 | 0.00 | 0.00 | 0.00 | 78 | 1013.1 |
| 20260507052906 | 47 | 40 | 2.0 | 5.0 | 0.00 | 0.00 | 0.00 | 79 | 1013.1 |
| 20260507051905 | 46 | 40 | 2.0 | 5.0 | 0.00 | 0.00 | 0.00 | 80 | 1013.1 |
| 20260507050903 | 46 | 50 | 2.0 | 4.0 | 0.00 | 0.00 | 0.00 | 80 | 1013.0 |
| 20260507045903 | 46 | 53 | 2.0 | 4.0 | 0.00 | 0.00 | 0.00 | 81 | 1013.1 |
| 20260507044902 | 46 | 53 | 2.0 | 4.0 | 0.00 | 0.00 | 0.00 | 81 | 1013.0 |
| 20260507043902 | 46 | 56 | 1.0 | 4.0 | 0.00 | 0.00 | 0.00 | 81 | 1012.9 |
| 20260507042901 | 46 | 59 | 1.0 | 4.0 | 0.00 | 0.00 | 0.00 | 81 | 1012.8 |
| 20260507041900 | 46 | 59 | 1.0 | 4.0 | 0.00 | 0.00 | 0.00 | 81 | 1012.8 |
| 20260507040859 | 46 | 62 | 2.0 | 4.0 | 0.00 | 0.00 | 0.00 | 81 | 1012.8 |
| 20260507035858 | 46 | 61 | 2.0 | 5.0 | 0.00 | 0.00 | 0.00 | 80 | 1012.7 |
| 20260507034857 | 46 | 61 | 2.0 | 5.0 | 0.00 | 0.00 | 0.00 | 80 | 1012.7 |
| 20260507033857 | 47 | 41 | 1.0 | 3.0 | 0.00 | 0.00 | 0.00 | 79 | 1012.7 |
| 20260507032856 | 46 | 32 | 1.0 | 3.0 | 0.00 | 0.00 | 0.00 | 80 | 1012.6 |
| 20260507031855 | 47 | 32 | 1.0 | 3.0 | 0.00 | 0.00 | 0.00 | 80 | 1012.6 |
| 20260507030854 | 47 | 22 | 2.0 | 4.0 | 0.00 | 0.00 | 0.00 | 80 | 1012.6 |
| 20260507025853 | 47 | 34 | 3.0 | 6.0 | 0.00 | 0.00 | 0.00 | 80 | 1012.6 |
| 20260507024853 | 47 | 42 | 3.0 | 6.0 | 0.00 | 0.00 | 0.00 | 80 | 1012.6 |
| 20260507023852 | 47 | 50 | 3.0 | 6.0 | 0.00 | 0.00 | 0.00 | 80 | 1012.5 |
| 20260507022851 | 47 | 58 | 4.0 | 7.0 | 0.00 | 0.00 | 0.00 | 81 | 1012.5 |
| 20260507021850 | 47 | 58 | 4.0 | 7.0 | 0.00 | 0.00 | 0.00 | 82 | 1012.5 |
| 20260507020849 | 47 | 66 | 4.0 | 8.0 | 0.00 | 0.00 | 0.00 | 81 | 1012.6 |
| 20260507015848 | 47 | 64 | 4.0 | 8.0 | 0.00 | 0.00 | 0.00 | 80 | 1012.4 |
| 20260507014847 | 47 | 64 | 4.0 | 8.0 | 0.00 | 0.00 | 0.00 | 80 | 1012.4 |
| 20260507013846 | 47 | 62 | 4.0 | 8.0 | 0.00 | 0.00 | 0.00 | 80 | 1012.4 |
| 20260507012846 | 47 | 60 | 5.0 | 9.0 | 0.00 | 0.00 | 0.00 | 80 | 1012.3 |
| 20260507011845 | 47 | 60 | 5.0 | 9.0 | 0.00 | 0.00 | 0.00 | 80 | 1012.3 |
| 20260507010844 | 47 | 58 | 5.0 | 9.0 | 0.00 | 0.00 | 0.00 | 80 | 1012.4 |
| 20260507005843 | 47 | 52 | 5.0 | 9.0 | 0.00 | 0.00 | 0.00 | 79 | 1012.3 |
| 20260507004842 | 47 | 52 | 4.0 | 9.0 | 0.00 | 0.00 | 0.00 | 80 | 1012.4 |
| 20260507003841 | 47 | 46 | 5.0 | 9.0 | 0.00 | 0.00 | 0.00 | 80 | 1012.4 |
| 20260507002840 | 47 | 57 | 5.0 | 9.0 | 0.00 | 0.00 | 0.00 | 79 | 1012.3 |
| 20260507001839 | 47 | 57 | 5.0 | 9.0 | 0.00 | 0.00 | 0.00 | 80 | 1012.4 |
| 20260507000839 | 47 | 58 | 5.0 | 9.0 | 0.00 | 0.00 | 0.00 | 80 | 1012.4 |
| 20260506235838 | 48 | 63 | 5.0 | 9.0 | 0.00 | 0.00 | 0.00 | 80 | 1012.4 |
| 20260506234837 | 48 | 63 | 5.0 | 9.0 | 0.00 | 0.00 | 0.00 | 81 | 1012.4 |
| 20260506233835 | 48 | 67 | 5.0 | 9.0 | 0.00 | 0.00 | 0.00 | 81 | 1012.4 |
| 20260506232835 | 48 | 72 | 5.0 | 10.0 | 0.00 | 0.00 | 0.00 | 81 | 1012.4 |
| 20260506231835 | 48 | 67 | 6.0 | 11.0 | 0.00 | 0.00 | 0.00 | 81 | 1012.4 |
| 20260506230834 | 48 | 68 | 6.0 | 12.0 | 0.00 | 0.00 | 0.00 | 81 | 1012.3 |
| 20260506225834 | 48 | 70 | 7.0 | 13.0 | 0.00 | 0.00 | 0.00 | 81 | 1012.3 |
| 20260506224833 | 48 | 66 | 6.0 | 11.0 | 0.00 | 0.00 | 0.00 | 81 | 1012.3 |
| 20260506223832 | 48 | 69 | 6.0 | 11.0 | 0.00 | 0.00 | 0.00 | 81 | 1012.3 |
| 20260506222832 | 48 | 73 | 6.0 | 12.0 | 0.00 | 0.00 | 0.00 | 81 | 1012.3 |
| 20260506221831 | 48 | 73 | 6.0 | 12.0 | 0.00 | 0.00 | 0.00 | 82 | 1012.2 |
| 20260506220830 | 48 | 76 | 7.0 | 12.0 | 0.00 | 0.00 | 0.00 | 84 | 1012.0 |
| 20260506215830 | 48 | 74 | 7.0 | 12.0 | 0.00 | 0.00 | 0.00 | 85 | 1012.0 |
| 20260506214829 | 49 | 74 | 7.0 | 12.0 | 0.00 | 0.00 | 0.00 | 84 | 1012.0 |
| 20260506213829 | 49 | 71 | 6.0 | 12.0 | 0.00 | 0.00 | 0.00 | 84 | 1012.1 |
| 20260506212827 | 49 | 73 | 6.0 | 12.0 | 0.00 | 0.00 | 0.00 | 83 | 1012.0 |
| 20260506211826 | 49 | 73 | 6.0 | 12.0 | 0.00 | 0.00 | 0.00 | 81 | 1012.0 |
| 20260506210826 | 50 | 78 | 6.0 | 12.0 | 0.00 | 0.00 | 0.00 | 79 | 1011.8 |
| 20260506205826 | 50 | 51 | 6.0 | 12.0 | 0.00 | 0.00 | 0.00 | 77 | 1011.7 |
| 20260506204824 | 50 | 51 | 6.0 | 12.0 | 0.00 | 0.00 | 0.00 | 75 | 1011.6 |
| 20260506203824 | 51 | 23 | 6.0 | 11.0 | 0.00 | 0.00 | 0.00 | 76 | 1011.6 |
| 20260506202823 | 51 | 356 | 0.0 | 2.0 | 0.00 | 0.00 | 0.00 | 77 | 1011.5 |
| 20260506201823 | 51 | 10 | 0.0 | 2.0 | 0.00 | 0.00 | 0.00 | 77 | 1011.6 |
| 20260506200821 | 51 | 344 | 0.0 | 1.0 | 0.00 | 0.00 | 0.00 | 76 | 1011.5 |
| 20260506195821 | 51 | 336 | 0.0 | 2.0 | 0.00 | 0.00 | 0.00 | 76 | 1011.4 |
| 20260506194820 | 50 | 336 | 0.0 | 2.0 | 0.00 | 0.00 | 0.00 | 76 | 1011.4 |
| 20260506193819 | 51 | 328 | 2.0 | 5.0 | 0.00 | 0.00 | 0.00 | 76 | 1011.2 |
| 20260506192818 | 51 | 320 | 4.0 | 8.0 | 0.00 | 0.00 | 0.00 | 76 | 1011.2 |
| 20260506191818 | 51 | 320 | 4.0 | 8.0 | 0.00 | 0.00 | 0.00 | 75 | 1011.0 |
| 20260506190816 | 52 | 312 | 6.0 | 11.0 | 0.00 | 0.00 | 0.00 | 73 | 1011.0 |
| 20260506185816 | 52 | 316 | 7.0 | 12.0 | 0.00 | 0.00 | 0.00 | 71 | 1010.9 |
| 20260506184815 | 52 | 316 | 7.0 | 12.0 | 0.00 | 0.00 | 0.00 | 70 | 1010.7 |
| 20260506183813 | 52 | 319 | 7.0 | 13.0 | 0.00 | 0.00 | 0.00 | 69 | 1010.7 |
| 20260506182813 | 52 | 323 | 7.0 | 14.0 | 0.00 | 0.00 | 0.00 | 69 | 1010.7 |
| 20260506181812 | 53 | 323 | 7.0 | 14.0 | 0.00 | 0.00 | 0.00 | 69 | 1010.5 |
| 20260506180811 | 53 | 326 | 7.0 | 14.0 | 0.00 | 0.00 | 0.00 | 68 | 1010.4 |
| 20260506175811 | 53 | 330 | 8.0 | 15.0 | 0.00 | 0.00 | 0.00 | 68 | 1010.3 |
| 20260506174809 | 53 | 330 | 8.0 | 15.0 | 0.00 | 0.00 | 0.00 | 67 | 1010.2 |
| 20260506173809 | 54 | 333 | 9.0 | 17.0 | 0.00 | 0.00 | 0.00 | 67 | 1010.1 |
| 20260506172808 | 53 | 331 | 9.0 | 17.0 | 0.00 | 0.00 | 0.00 | 69 | 1010.0 |
| 20260506171807 | 53 | 331 | 9.0 | 17.0 | 0.00 | 0.00 | 0.00 | 68 | 1010.1 |
| 20260506170807 | 54 | 324 | 9.0 | 16.0 | 0.00 | 0.00 | 0.00 | 65 | 1010.1 |
| 20260506165806 | 54 | 328 | 9.0 | 17.0 | 0.00 | 0.00 | 0.00 | 61 | 1010.0 |
| 20260506164805 | 54 | 328 | 9.0 | 17.0 | 0.00 | 0.00 | 0.00 | 59 | 1010.0 |
| 20260506163805 | 54 | 332 | 9.0 | 18.0 | 0.00 | 0.00 | 0.00 | 59 | 1010.0 |
| 20260506162805 | 54 | 334 | 9.0 | 17.0 | 0.00 | 0.00 | 0.00 | 59 | 1010.0 |
| 20260506161803 | 54 | 334 | 9.0 | 17.0 | 0.00 | 0.00 | 0.00 | 63 | 1010.1 |
| 20260506160803 | 54 | 338 | 9.0 | 17.0 | 0.00 | 0.00 | 0.00 | 62 | 1009.9 |
| 20260506155803 | 54 | 344 | 9.0 | 18.0 | 0.00 | 0.00 | 0.00 | 61 | 1010.0 |
| 20260506154802 | 55 | 344 | 9.0 | 18.0 | 0.00 | 0.00 | 0.00 | 60 | 1010.0 |
| 20260506153801 | 54 | 349 | 9.0 | 18.0 | 0.00 | 0.00 | 0.00 | 59 | 1010.0 |
| 20260506152800 | 54 | 355 | 10.0 | 18.0 | 0.00 | 0.00 | 0.00 | 60 | 1010.0 |
| 20260506151759 | 54 | 355 | 9.0 | 18.0 | 0.00 | 0.00 | 0.00 | 59 | 1010.0 |
| 20260506150758 | 54 | 354 | 9.0 | 18.0 | 0.00 | 0.00 | 0.00 | 58 | 1010.0 |
| 20260506145757 | 54 | 354 | 9.0 | 19.0 | 0.00 | 0.00 | 0.00 | 59 | 1010.0 |
| 20260506144757 | 54 | 354 | 9.0 | 19.0 | 0.00 | 0.00 | 0.00 | 59 | 1009.9 |
| 20260506143757 | 54 | 354 | 10.0 | 19.0 | 0.00 | 0.00 | 0.00 | 60 | 1009.9 |
| 20260506142756 | 55 | 354 | 10.0 | 19.0 | 0.00 | 0.00 | 0.00 | 60 | 1009.9 |
| 20260506141754 | 55 | 354 | 10.0 | 19.0 | 0.00 | 0.00 | 0.00 | 60 | 1009.9 |
| 20260506140754 | 55 | 354 | 10.0 | 20.0 | 0.00 | 0.00 | 0.00 | 60 | 1009.8 |
| 20260506135753 | 54 | 355 | 10.0 | 20.0 | 0.00 | 0.00 | 0.00 | 59 | 1009.8 |
| 20260506134752 | 55 | 355 | 10.0 | 20.0 | 0.00 | 0.00 | 0.00 | 59 | 1009.9 |
| 20260506132752 | 55 | 357 | 10.0 | 20.0 | 0.00 | 0.00 | 0.00 | 57 | 1009.8 |
| 20260506131751 | 55 | 357 | 10.0 | 20.0 | 0.00 | 0.00 | 0.00 | 59 | 1009.8 |
| 20260506130749 | 55 | 358 | 10.0 | 20.0 | 0.00 | 0.00 | 0.00 | 59 | 1009.7 |
| 20260506125749 | 55 | 360 | 10.0 | 19.0 | 0.00 | 0.00 | 0.00 | 55 | 1009.7 |
| 20260506124748 | 55 | 360 | 10.0 | 19.0 | 0.00 | 0.00 | 0.00 | 56 | 1009.7 |
| 20260506123747 | 56 | 1 | 10.0 | 19.0 | 0.00 | 0.00 | 0.00 | 55 | 1009.5 |
| 20260506122746 | 56 | 3 | 9.0 | 18.0 | 0.00 | 0.00 | 0.00 | 54 | 1009.6 |
| 20260506121745 | 56 | 3 | 11.0 | 18.0 | 0.00 | 0.00 | 0.00 | 55 | 1009.5 |
| 20260506120744 | 57 | 4 | 11.0 | 21.0 | 0.00 | 0.00 | 0.00 | 54 | 1009.4 |
| 20260506115743 | 58 | 8 | 11.0 | 21.0 | 0.00 | 0.00 | 0.00 | 56 | 1009.6 |
| 20260506114743 | 57 | 8 | 11.0 | 21.0 | 0.00 | 0.00 | 0.00 | 58 | 1009.6 |
| 20260506113743 | 59 | 10 | 11.0 | 21.0 | 0.00 | 0.00 | 0.00 | 58 | 1009.6 |
| 20260506112742 | 55 | 12 | 11.0 | 20.0 | 0.00 | 0.00 | 0.00 | 66 | 1009.6 |
| 20260506111742 | 53 | 12 | 11.0 | 20.0 | 0.00 | 0.00 | 0.00 | 69 | 1009.7 |
| 20260506110740 | 53 | 14 | 10.0 | 20.0 | 0.00 | 0.00 | 0.00 | 74 | 1009.7 |
| 20260506105740 | 54 | 6 | 11.0 | 21.0 | 0.00 | 0.00 | 0.00 | 74 | 1009.8 |
| 20260506104739 | 54 | 6 | 11.0 | 21.0 | 0.00 | 0.00 | 0.00 | 70 | 1009.8 |
| 20260506103739 | 53 | 9 | 11.0 | 20.0 | 0.00 | 0.00 | 0.00 | 67 | 1009.7 |
| 20260506102738 | 53 | 13 | 10.0 | 20.0 | 0.00 | 0.00 | 0.00 | 67 | 1009.7 |
| 20260506101737 | 53 | 13 | 10.0 | 20.0 | 0.00 | 0.00 | 0.00 | 64 | 1009.7 |
| 20260506100737 | 55 | 16 | 10.0 | 20.0 | 0.00 | 0.00 | 0.00 | 60 | 1009.5 |
| 20260506095736 | 56 | 11 | 10.0 | 19.0 | 0.00 | 0.00 | 0.00 | 61 | 1009.6 |
| 20260506094735 | 56 | 11 | 10.0 | 19.0 | 0.00 | 0.00 | 0.00 | 61 | 1009.5 |
| 20260506093734 | 53 | 354 | 10.0 | 20.0 | 0.00 | 0.00 | 0.00 | 66 | 1009.6 |
| 20260506092733 | 51 | 354 | 10.0 | 19.0 | 0.00 | 0.00 | 0.00 | 68 | 1009.7 |
| 20260506091732 | 53 | 354 | 10.0 | 19.0 | 0.00 | 0.00 | 0.00 | 63 | 1009.4 |
| 20260506090731 | 55 | 354 | 10.0 | 19.0 | 0.00 | 0.00 | 0.00 | 63 | 1009.4 |
| 20260506085731 | 55 | 346 | 10.0 | 19.0 | 0.00 | 0.00 | 0.00 | 62 | 1009.4 |
| 20260506084729 | 53 | 346 | 10.0 | 19.0 | 0.00 | 0.00 | 0.00 | 66 | 1009.4 |
| 20260506083729 | 52 | 346 | 9.0 | 18.0 | 0.00 | 0.00 | 0.00 | 68 | 1009.3 |